Regional Weather Roundup
Issued by NWS

Home | Current Version | Previous Version | Graphics & Text | Print | Product List | Glossary Off
Versions: 1 2 3 4 5 6 7 8 9 10 11 12 13 14 15 16 17 18 19 20 21 22 23 24 25 26 27 28 29 30 31 32 33 34 35 36 37 38 39 40 41 42 43 44 45 46 47 48 49 50

000
ASUS43 KMKX 230000
RWRWI

WISCONSIN REGIONAL WEATHER ROUNDUP
NATIONAL WEATHER SERVICE MILWAUKEE/SULLIVAN WI
700 PM CDT TUE APR 22 2014

NOTE: "FAIR" INDICATES FEW OR NO CLOUDS BELOW 12,000 FEET WITH NO
SIGNIFICANT WEATHER AND/OR OBSTRUCTIONS TO VISIBILITY.

WIZ001-002-006>008-014>016-023>028-230100-
NORTHWEST WISCONSIN

CITY           SKY/WX    TMP DP  RH WIND       PRES   REMARKS
SUPERIOR ARPT  SUNNY     53  22  29 E5        30.05F
ASHLAND        CLEAR     48  25  40 NE7       30.08S
6HR MIN TEMP:  43; 6HR MAX TEMP:  50;

HAYWARD        CLEAR     50  20  30 N7        30.06S
6HR MIN TEMP:  47; 6HR MAX TEMP:  53;

SIREN          SUNNY     53  19  26 NE6       30.05F
RICE LAKE      CLEAR     52  23  31 N13       30.07R
LADYSMITH      CLEAR     51  24  34 N10       30.07S
EAU CLAIRE     NOT AVBL
MENOMONIE      PTCLDY    54  19  25 N8G17     30.05R
NEW RICHMOND   SUNNY     54  21  27 N9        30.05F
OSCEOLA        SUNNY     55  22  28 N8        30.07F
$$

WIZ003>005-009-010-017-018-230100-
NORTH CENTRAL WISCONSIN

CITY           SKY/WX    TMP DP  RH WIND       PRES   REMARKS
WOODRUFF       CLEAR     45  24  44 N13       30.06S
RHINELANDER    PTCLDY    42  23  46 N9        30.06S
6HR MIN TEMP:  38; 6HR MAX TEMP:  44;

EAGLE RIVER    MOCLDY    42  23  47 N12       30.04F
LAND O LAKES   CLEAR     42  25  52 N12       30.06S
PHILLIPS       CLEAR     46  24  43 N13       30.05S
TOMAHAWK       CLEAR     45  24  44 N5G18     30.05F
MEDFORD        CLEAR     47  25  42 N13       30.04S
MERRILL        CLEAR     46  25  44 N15       30.05S
$$

WIZ029-030-035-036-043>047-230100-
CENTRAL WISCONSIN

CITY           SKY/WX    TMP DP  RH WIND       PRES   REMARKS
WAUSAU         CLEAR     47  24  40 N12G21    30.03S
6HR MIN TEMP:  46; 6HR MAX TEMP:  51;

MOSINEE        CLEAR     46  25  42 N12G18    30.04S
MARSHFIELD     CLEAR     49  23  36 N10       30.04R
6HR MIN TEMP:  49; 6HR MAX TEMP:  54;

STEVENS POINT  CLEAR     47  22  37 N15G21    30.03S
WAUPACA        CLEAR     54  21  28 N8G16     30.03R
WAUTOMA        NOT AVBL
WISC RAPIDS    CLEAR     50  22  33 N14       30.04R
6HR MIN TEMP:  50; 6HR MAX TEMP:  56;

CAMP DOUGLAS   NOT AVBL
$$

WIZ011>013-019>022-031-037>040-048>050-230100-
NORTHEAST WISCONSIN

CITY           SKY/WX    TMP DP  RH WIND       PRES   REMARKS
ANTIGO         CLEAR     42  27  56 N15       30.05R
STURGEON BAY   CLOUDY    41  27  56 N17G23    30.04R
6HR MIN TEMP:  41; 6HR MAX TEMP:  46;

GREEN BAY      CLEAR     47  29  49 N17       30.04R
6HR MIN TEMP:  47; 6HR MAX TEMP:  50;

MANITOWOC      NOT AVBL
APPLETON       PTCLDY    48  25  40 N15       30.02S
CLINTONVILLE   CLEAR     50  25  37 N13G18    30.03R
OSHKOSH        CLEAR     49  24  37 N16       30.02R
6HR MIN TEMP:  49; 6HR MAX TEMP:  54;

$$

WIZ032>034-041-042-053>061-230100-
SOUTHWEST WISCONSIN

CITY           SKY/WX    TMP DP  RH WIND       PRES   REMARKS
LA CROSSE      PTCLDY    56  22  26 N12       30.03R
6HR MIN TEMP:  55; 6HR MAX TEMP:  61;

SPARTA         CLEAR     55  21  26 NW9       30.04R
VIROQUA        FAIR      53  25  33 N14       30.02R
BOSCOBEL       PTCLDY    58  22  24 N9        30.01S
6HR MIN TEMP:  55; 6HR MAX TEMP:  62;

PRAIRIE DU CHI PTCLDY    58  24  27 NW9       30.01S
PLATTEVILLE    FAIR      57  24  28 N12       30.01S
$$

WIZ056-057-062-063-064-067-068-230100-
SOUTH CENTRAL WISCONSIN

CITY           SKY/WX    TMP DP  RH WIND       PRES   REMARKS
BARABOO/DELLS  CLEAR     53  22  30 N13       30.01R
LONE ROCK      NOT AVBL
WATERTOWN      PTCLDY    54  28  37 N14G20    29.99R
MADISON        PTCLDY    53  24  32 N10       30.00R
6HR MIN TEMP:  53; 6HR MAX TEMP:  59;

MIDDLETON      FAIR      56  21  25 N14       30.00S
MONROE         CLEAR     55  24  30 N9G17     29.98S
JANESVILLE     CLEAR     57  23  26 N12       29.98S
$$

WIZ051-052-058>065-066-070>072-230100-
SOUTHEAST WISCONSIN

CITY           SKY/WX    TMP DP  RH WIND       PRES   REMARKS
MILWAUKEE      PTCLDY    43  28  55 NE9       30.03R
6HR MIN TEMP:  42; 6HR MAX TEMP:  57;

WAUKESHA       PTCLDY    50  27  40 NW12      30.00R
MILWAUKEE/TIMM PTCLDY    45  27  49 NE12G17   30.01R
RACINE         PTCLDY    42  29  59 NE10      30.04R
6HR MIN TEMP:  42; 6HR MAX TEMP:  55;

BURLINGTON     CLEAR     53  25  34 NW14      29.99R
KENOSHA        CLEAR     43  30  60 E9        30.02R
6HR MIN TEMP:  43; 6HR MAX TEMP:  58;

FOND DU LAC    CLEAR     48  29  47 NE13      30.02R
6HR MIN TEMP:  48; 6HR MAX TEMP:  55;

SHEBOYGAN      CLEAR     47  26  44 N15G22    30.01R
6HR MIN TEMP:  47; 6HR MAX TEMP:  54;

WEST BEND      CLEAR     48  23  37 N12G20    30.00R
JUNEAU         CLEAR     52  21  29 N14G20    30.01R
$$

LSZ147-162-230100-
LAKE SUPERIOR

STATION/POSITION TIME  TEMP    WIND        PRES    WAVE
                       AIR SEA DIR/SP/G            HT/PER
                 (UTC) (F)     (DEG/KT/KT) (MB)    (FT/S)
DEVILS ISLAND    2300   46     210/  2/  4 1019.0F
PORT WING        2300   46      10/  2/  2 1018.6S
SAXON HARBOR     2300             CALM     1019.0
$$

LMZ867-665-643>646-230100-
LAKE MICHIGAN

STATION/POSITION TIME  TEMP    WIND        PRES    WAVE
                       AIR SEA DIR/SP/G            HT/PER
                 (UTC) (F)     (DEG/KT/KT) (MB)    (FT/S)
NORTHPORT PIER   2200   36     350/ 12/ 16 1015.9R
SISTER BAY       2209   39      10/ 17/ 20   N/A
KEWAUNEE LAKESHO 2300   45     340/  9/ 13 1016.9R
SHEBOYGAN LAKESH 2300   44      10/ 13/ 14 1016.8R
PORT WASHINGTON  2300           50/  9/ 13 1016.6
MILWAUKEE LAKESH 2300   41      70/  6/  7   N/A
KENOSHA   LAKESH 2300   45     130/  3/  4   N/A
$$

TC  - TEMPERATURE IN CELSIUS
VSB - VISIBILITY IN STATUTE MILES
WCI - WIND CHILL INDEX
HX  - HEAT INDEX




USA.gov is the U.S. government's official web portal to all federal, state and local government web resources and services.